Location: Firdgum
(53.2488°N, 5.5615°E)
Time: 02:26:44
(UTC+00:00)

ALOS - Pass Details

Date: 08 December 2019
Orbit: 683 x 685 km, 97.8° (Epoch: 26 January)

Event Time Altitude Azimuth Distance (km) Brightness Sun altitude
Rises 06:36:50 0° 6° (N) 3,068 5.4 -8.6°
Reaches altitude 10° 06:39:28 10° 352° (N) 2,147 4.5 -8.2°
Maximum altitude 06:43:04 23° 302° (WNW) 1,472 3.4 -7.7°
Drops below altitude 10° 06:46:40 10° 251° (WSW) 2,135 4.4 -7.3°
Sets 06:49:17 0° 237° (WSW) 3,047 5.3 -6.9°
